Location: El Barbasco
(9.9682°N, 67.7441°W)
Time: 12:29:05
(UTC+00:00)

USA 59 Rocket - Pass Details

Date: 05 August 2024
Orbit: 380 x 1730 km, 63.3° (Epoch: 17 September)

Event Time Altitude Azimuth Distance (km) Brightness Sun altitude
Rises 23:28:49 0° 205° (SSW) 3,684 4.1 -9.3°
Reaches altitude 10° 23:31:48 10° 206° (SSW) 2,501 3.3 -10.0°
Maximum altitude 23:37:23 81° 294° (WNW) 666 0.3 -11.3°
Drops below altitude 10° 23:41:19 10° 21° (NNE) 1,780 2.4 -12.3°
Sets 23:43:11 0° 22° (NNE) 2,545 3.2 -12.7°
